Location: St. Andrews
(45.0670°N, 67.0330°W)
Time: 08:58:35
(UTC-03:00)

Amateur Radio Satellites - All Passes

Search period start: 20 September 2014 08:28
Search period end: 21 September 2014 08:28
Location: St. Andrews, 45.0670°N, 67.0330°W

Satellite Date Start Highest point End Downlink Frequencies (MHz)
Time Altitude Azimuth
Hamsat 20 Sep 08:32:05 08:35:24 23° 294° (WNW) 08:38:41 145.90 MHz
STRAND 1 20 Sep 08:37:15 08:41:01 21° 268° (W) 08:44:50 ?
RS-15 20 Sep 08:43:57 08:53:13 30° 343° (NNW) 09:02:35 29.354 - 29.394 USB, Beacon 29.352 USB
UOSAT-12 20 Sep 09:07:55 09:12:39 63° 51° (NE) 09:17:17 437.025 FM, 437.400 FM
ISS 20 Sep 09:08:05 09:11:26 90° 208° (SSW) 09:14:45 145.800 FM
SO-50 20 Sep 09:14:53 09:17:36 15° 251° (WSW) 09:20:19 436.795 FM
AO-7 20 Sep 09:17:10 09:19:45 12° 324° (NW) 09:22:21 29.400 - 29.500 MHz
MaSat-1 20 Sep 09:28:19 09:33:21 79° 298° (WNW) 09:38:15 437.345 MHz
HO-68 20 Sep 09:32:47 09:38:40 27° 93° (E) 09:44:31 435.675 MHz FM
SO-67 20 Sep 09:40:00 09:42:27 18° 293° (WNW) 09:44:54 435.3500 MHz FM
Oscar 11 20 Sep 10:07:44 10:10:01 14° 90° (E) 10:12:18 145.825 FM, Beacon 2401.500 USB
UKube-1 20 Sep 10:23:59 10:27:41 27° 96° (E) 10:31:22 145.840 MHz, 145.915 MHz
ISS 20 Sep 10:45:55 10:47:42 14° 227° (SW) 10:49:29 145.800 FM
UOSAT-12 20 Sep 10:49:06 10:52:20 18° 249° (WSW) 10:55:31 437.025 FM, 437.400 FM
RS-15 20 Sep 11:00:37 11:09:59 31° 18° (NNE) 11:19:33 29.354 - 29.394 USB, Beacon 29.352 USB
MaSat-1 20 Sep 11:07:57 11:10:50 15° 317° (NW) 11:13:38 437.345 MHz
HO-68 20 Sep 11:19:47 11:26:52 65° 292° (WNW) 11:33:57 435.675 MHz FM
FUNcube-1 20 Sep 11:33:46 11:38:16 48° 99° (E) 11:42:42 145.950 - 145.970 MHz USB
Oscar 11 20 Sep 11:42:19 11:46:37 60° 287° (WNW) 11:50:52 145.825 FM, Beacon 2401.500 USB
UKube-1 20 Sep 12:00:02 12:03:54 32° 293° (WNW) 12:07:45 145.840 MHz, 145.915 MHz
Sapphire 20 Sep 12:11:04 12:15:31 27° 109° (ESE) 12:20:00 437.095 MHz 1200 baud AX-25 AFSK
PCSat 20 Sep 12:37:07 12:42:16 47° 114° (ESE) 12:47:28 145.825 MHz
Oscar 16 20 Sep 12:46:39 12:50:14 19° 60° (ENE) 12:53:49 437.025 USB, Beacon 2401.1428
HO-68 20 Sep 13:09:29 13:13:16 15° 312° (NW) 13:17:02 435.675 MHz FM
FUNcube-1 20 Sep 13:10:54 13:14:19 21° 296° (WNW) 13:17:43 145.950 - 145.970 MHz USB
RS-15 20 Sep 13:13:51 13:24:54 67° 48° (NE) 13:36:19 29.354 - 29.394 USB, Beacon 29.352 USB
ITAMSAT 1 20 Sep 13:31:25 13:35:10 21° 61° (ENE) 13:38:55 435.822 SSB
Uribyol 2 20 Sep 13:35:06 13:39:06 23° 62° (ENE) 13:43:08 436.500 FM
JAS-1B 20 Sep 13:36:30 13:43:55 39° 65° (ENE) 13:50:16 435.800 - 435.900 CW/SSB
Oscar 19 20 Sep 13:45:02 13:50:06 56° 71° (ENE) 13:55:12 437.125 CW, 437.150 USB
Sapphire 20 Sep 13:53:24 13:58:39 50° 308° (NW) 14:03:57 437.095 MHz 1200 baud AX-25 AFSK
TMSAT-1 20 Sep 14:01:46 14:04:36 15° 57° (ENE) 14:07:26 436.925 FM
AO-27 20 Sep 14:05:21 14:10:07 39° 67° (ENE) 14:14:56 436.795 MHz FM
PCSat 20 Sep 14:21:03 14:25:52 32° 314° (NW) 14:30:44 145.825 MHz
Oscar 16 20 Sep 14:23:55 14:29:05 66° 258° (WSW) 14:34:17 437.025 USB, Beacon 2401.1428
Oscar 10/S400 20 Sep 14:29:45 14:38:13 13° 145° (SE) 14:45:58 145.825 - 145.975 CW/USB, Beacon 145.810 USB
AO-Echo 20 Sep 14:30:52 14:35:35 72° 74° (ENE) 14:40:16 ?
AO-7 20 Sep 14:40:26 14:46:04 21° 47° (NE) 14:51:41 29.400 - 29.500 MHz
Gurwin Techsat 1B 20 Sep 15:02:05 15:07:17 60° 71° (ENE) 15:12:32 435.225 FM
ITAMSAT 1 20 Sep 15:09:08 15:14:13 60° 259° (WSW) 15:19:22 435.822 SSB
Uribyol 2 20 Sep 15:13:13 15:18:14 52° 260° (W) 15:23:19 436.500 FM
Oscar 19 20 Sep 15:26:00 15:29:47 20° 268° (W) 15:33:36 437.125 CW, 437.150 USB
JAS-1B 20 Sep 15:26:11 15:34:24 50° 260° (W) 15:41:20 435.800 - 435.900 CW/SSB
RS-15 20 Sep 15:26:44 15:36:44 41° 251° (WSW) 15:47:08 29.354 - 29.394 USB, Beacon 29.352 USB
TMSAT-1 20 Sep 15:38:29 15:43:47 89° 255° (WSW) 15:49:07 436.925 FM
Sapphire 20 Sep 15:40:52 15:43:25 13° 330° (NNW) 15:45:58 437.095 MHz 1200 baud AX-25 AFSK
Uosat F 20 Sep 15:42:54 15:46:34 21° 61° (ENE) 15:50:15 435.120 FM
AO-27 20 Sep 15:45:18 15:49:44 29° 265° (W) 15:54:12 436.795 MHz FM
AO-Echo 20 Sep 16:12:41 16:14:53 13° 271° (W) 16:17:05 ?
AO-7 20 Sep 16:29:18 16:37:35 76° 68° (ENE) 16:45:52 29.400 - 29.500 MHz
Gurwin Techsat 1B 20 Sep 16:43:56 16:47:40 19° 269° (W) 16:51:26 435.225 FM
JAS-2 20 Sep 16:59:17 17:02:29 17° 58° (ENE) 17:05:43 435.800 - 435.900 CW/SSB, 435.910 FM
Uosat F 20 Sep 17:20:04 17:24:58 55° 259° (W) 17:29:54 435.120 FM
TMSAT-1 20 Sep 17:22:27 17:24:27 12° 273° (W) 17:26:27 436.925 FM
Saudisat 1A 20 Sep 17:43:09 17:47:25 52° 120° (ESE) 17:51:43 436.775 MHz
MaSat-1 20 Sep 17:43:25 17:47:05 34° 53° (NE) 17:50:14 437.345 MHz
Hamsat 20 Sep 17:50:47 17:54:44 34° 69° (ENE) 17:58:41 145.90 MHz
KITSAT 1 20 Sep 18:09:51 18:12:09 11° 97° (E) 18:14:27 435.175 FM
OPAL 20 Sep 18:22:40 18:27:52 70° 105° (ESE) 18:32:56 ?
AO-7 20 Sep 18:24:33 18:31:07 26° 267° (W) 18:37:44 29.400 - 29.500 MHz
JAS-2 20 Sep 18:41:51 18:47:04 69° 258° (WSW) 18:52:16 435.800 - 435.900 CW/SSB, 435.910 FM
SO-67 20 Sep 18:42:27 18:44:26 15° 65° (ENE) 18:46:24 435.3500 MHz FM
STRAND 1 20 Sep 19:06:31 19:09:27 15° 89° (E) 19:12:22 ?
Sapphire 20 Sep 19:14:55 19:16:01 11° 25° (NNE) 19:17:08 437.095 MHz 1200 baud AX-25 AFSK
MaSat-1 20 Sep 19:20:52 19:23:26 18° 257° (WSW) 19:25:45 437.345 MHz
Saudisat 1A 20 Sep 19:23:38 19:27:15 24° 320° (NW) 19:30:55 436.775 MHz
Hamsat 20 Sep 19:27:12 19:30:45 24° 266° (W) 19:34:19 145.90 MHz
PCSat 20 Sep 19:40:40 19:43:40 15° 32° (NNE) 19:46:40 145.825 MHz
KITSAT 1 20 Sep 19:57:58 20:05:53 61° 116° (ESE) 20:13:49 435.175 FM
OPAL 20 Sep 20:02:41 20:06:11 19° 303° (WNW) 20:09:39 ?
HO-68 20 Sep 20:04:09 20:09:51 27° 56° (NE) 20:15:33 435.675 MHz FM
SO-67 20 Sep 20:13:55 20:17:09 37° 262° (W) 20:20:24 435.3500 MHz FM
AO-40 20 Sep 20:35:20 02:05:42 37° 183° (S) 08:13:32 Beacon 2401.320
STRAND 1 20 Sep 20:44:03 20:49:11 73° 287° (WNW) 20:54:18 ?
Sapphire 20 Sep 20:56:06 21:01:08 36° 48° (NE) 21:06:07 437.095 MHz 1200 baud AX-25 AFSK
Oscar 11 20 Sep 21:04:58 21:07:35 16° 62° (ENE) 21:10:11 145.825 FM, Beacon 2401.500 USB
UKube-1 20 Sep 21:21:25 21:25:13 31° 67° (ENE) 21:29:01 145.840 MHz, 145.915 MHz
PCSat 20 Sep 21:22:53 21:28:16 59° 54° (NE) 21:33:37 145.825 MHz
HO-68 20 Sep 21:49:51 21:56:57 71° 256° (WSW) 22:04:07 435.675 MHz FM
SO-50 20 Sep 21:51:48 21:54:19 15° 109° (ESE) 21:56:53 436.795 FM
KITSAT 1 20 Sep 21:54:12 22:01:41 40° 318° (NW) 22:09:14 435.175 FM
STRAND 1 20 Sep 22:25:53 22:27:29 11° 305° (NW) 22:29:04 ?
FUNcube-1 20 Sep 22:31:56 22:36:11 48° 71° (ENE) 22:40:34 145.950 - 145.970 MHz USB
Oscar 11 20 Sep 22:38:59 22:43:18 60° 259° (W) 22:47:38 145.825 FM, Beacon 2401.500 USB
Sapphire 20 Sep 22:39:34 22:44:36 40° 247° (WSW) 22:49:36 437.095 MHz 1200 baud AX-25 AFSK
UKube-1 20 Sep 22:57:42 23:01:24 27° 264° (W) 23:05:07 145.840 MHz, 145.915 MHz
PCSat 20 Sep 23:07:07 23:11:15 23° 253° (WSW) 23:15:22 145.825 MHz
UOSAT-12 20 Sep 23:24:32 23:25:46 11° 107° (ESE) 23:27:00 437.025 FM, 437.400 FM
SO-50 20 Sep 23:29:48 23:34:17 71° 308° (NW) 23:38:55 436.795 FM
HO-68 20 Sep 23:43:08 23:45:55 12° 275° (W) 23:48:42 435.675 MHz FM
KITSAT 1 20 Sep 23:54:28 23:59:43 18° 346° (NNW) 00:04:57 435.175 FM
FUNcube-1 21 Sep 00:09:48 00:12:52 18° 269° (W) 00:16:01 145.950 - 145.970 MHz USB
Saudisat 1A 21 Sep 00:29:25 00:32:03 15° 33° (NNE) 00:34:40 436.775 MHz
UOSAT-12 21 Sep 01:00:29 01:05:07 85° 125° (SE) 01:09:52 437.025 FM, 437.400 FM
SO-50 21 Sep 01:12:57 01:15:42 16° 329° (NNW) 01:18:30 436.795 FM
KITSAT 1 21 Sep 01:53:22 01:58:49 19° 17° (NNE) 02:04:15 435.175 FM
Oscar 19 21 Sep 01:55:50 01:59:08 17° 90° (E) 02:02:24 437.125 CW, 437.150 USB
Saudisat 1A 21 Sep 02:07:57 02:12:23 75° 53° (NE) 02:16:47 436.775 MHz
AO-27 21 Sep 02:18:31 02:20:13 12° 87° (E) 02:21:55 436.795 MHz FM
Oscar 16 21 Sep 02:33:48 02:38:38 38° 97° (E) 02:43:24 437.025 USB, Beacon 2401.1428
AO-Echo 21 Sep 02:36:30 02:40:01 20° 92° (E) 02:43:36 ?
UOSAT-12 21 Sep 02:42:30 02:45:54 19° 325° (NW) 02:49:20 437.025 FM, 437.400 FM
Oscar 10/S400 21 Sep 03:06:53 04:11:46 28° 236° (SW) 07:33:24 145.825 - 145.975 CW/USB, Beacon 145.810 USB
JAS-1B 21 Sep 03:09:24 03:14:46 39° 97° (E) 03:20:05 435.800 - 435.900 CW/SSB
Gurwin Techsat 1B 21 Sep 03:17:05 03:21:01 21° 91° (E) 03:24:54 435.225 FM
ITAMSAT 1 21 Sep 03:19:59 03:24:56 42° 98° (E) 03:29:52 435.822 SSB
Uribyol 2 21 Sep 03:23:46 03:28:50 48° 100° (E) 03:33:52 436.500 FM
ISS 21 Sep 03:27:51 03:31:09 65° 146° (SSE) 03:34:28 145.800 FM
Oscar 19 21 Sep 03:33:49 03:38:58 66° 288° (WNW) 03:44:03 437.125 CW, 437.150 USB
RS-15 21 Sep 03:41:52 03:50:54 31° 105° (ESE) 03:59:48 29.354 - 29.394 USB, Beacon 29.352 USB
KITSAT 1 21 Sep 03:48:56 03:56:38 45° 44° (NE) 04:04:16 435.175 FM
Saudisat 1A 21 Sep 03:49:12 03:51:22 14° 251° (WSW) 03:53:33 436.775 MHz
TMSAT-1 21 Sep 03:52:39 03:57:22 31° 95° (E) 04:02:03 436.925 FM
AO-27 21 Sep 03:55:14 04:00:29 87° 105° (ESE) 04:05:43 436.795 MHz FM
OPAL 21 Sep 04:02:12 04:06:15 24° 59° (ENE) 04:10:19 ?
Oscar 16 21 Sep 04:13:23 04:17:52 30° 295° (WNW) 04:22:19 437.025 USB, Beacon 2401.1428
AO-Echo 21 Sep 04:14:23 04:19:05 52° 289° (WNW) 04:23:54 ?
AO-7 21 Sep 04:29:51 04:35:47 21° 90° (E) 04:41:41 29.400 - 29.500 MHz
Gurwin Techsat 1B 21 Sep 04:56:08 05:01:20 57° 289° (WNW) 05:06:31 435.225 FM
ITAMSAT 1 21 Sep 04:59:51 05:04:15 28° 296° (WNW) 05:08:38 435.822 SSB
JAS-1B 21 Sep 05:00:25 05:05:23 31° 297° (WNW) 05:10:16 435.800 - 435.900 CW/SSB
Uribyol 2 21 Sep 05:03:50 05:08:01 25° 297° (WNW) 05:12:13 436.500 FM
ISS 21 Sep 05:05:00 05:08:03 33° 345° (NNW) 05:11:07 145.800 FM
Oscar 19 21 Sep 05:16:32 05:17:19 10° 306° (NW) 05:18:05 437.125 CW, 437.150 USB
Uosat F 21 Sep 05:25:45 05:30:27 38° 98° (E) 05:35:07 435.120 FM
TMSAT-1 21 Sep 05:32:28 05:37:20 37° 293° (WNW) 05:42:10 436.925 FM
AO-27 21 Sep 05:36:27 05:39:17 15° 303° (WNW) 05:42:07 436.795 MHz FM
OPAL 21 Sep 05:39:42 05:44:46 54° 257° (WSW) 05:49:54 ?
KITSAT 1 21 Sep 05:44:27 05:52:13 53° 246° (WSW) 05:59:57 435.175 FM
JAS-2 21 Sep 05:48:43 05:51:58 14° 89° (E) 05:55:22 435.800 - 435.900 CW/SSB, 435.910 FM
RS-15 21 Sep 05:51:04 06:02:07 79° 307° (NW) 06:13:08 29.354 - 29.394 USB, Beacon 29.352 USB
SO-50 21 Sep 06:19:20 06:23:33 30° 42° (NE) 06:27:50 436.795 FM
AO-7 21 Sep 06:21:14 06:29:34 87° 290° (WNW) 06:37:52 29.400 - 29.500 MHz
STRAND 1 21 Sep 06:23:59 06:28:14 28° 64° (ENE) 06:32:31 ?
ISS 21 Sep 06:42:30 06:45:23 26° 6° (N) 06:48:16 145.800 FM
Uosat F 21 Sep 07:04:49 07:09:06 29° 295° (WNW) 07:13:22 435.120 FM
Hamsat 21 Sep 07:10:02 07:14:13 52° 99° (E) 07:18:19 145.90 MHz
JAS-2 21 Sep 07:31:37 07:37:39 85° 104° (ESE) 07:44:31 435.800 - 435.900 CW/SSB, 435.910 FM
MaSat-1 21 Sep 07:32:46 07:34:52 13° 101° (E) 07:36:57 437.345 MHz
SO-67 21 Sep 07:36:50 07:38:22 12° 91° (E) 07:39:54 435.3500 MHz FM
UOSAT-12 21 Sep 07:48:48 07:52:36 23° 38° (NE) 07:56:21 437.025 FM, 437.400 FM
SO-50 21 Sep 07:59:42 08:04:18 46° 241° (WSW) 08:08:57 436.795 FM
STRAND 1 21 Sep 08:02:29 08:07:15 41° 262° (W) 08:12:04 ?
RS-15 21 Sep 08:06:50 08:16:26 33° 336° (NNW) 08:26:08 29.354 - 29.394 USB, Beacon 29.352 USB
AO-7 21 Sep 08:15:11 08:21:18 24° 311° (NW) 08:27:25 29.400 - 29.500 MHz
ISS 21 Sep 08:19:14 08:22:33 60° 25° (NNE) 08:25:50 145.800 FM
